{"data":{"norad_id":44800,"epoch":"2026-05-25T03:54:46.287936Z","epoch_age_seconds":60141,"freshness":"FRESH","line1":"1 44800U 19080A   26145.16303574  .00000153  00000+0  00000+0 0  9998","line2":"2 44800   0.0531 347.5067 0001996  91.9346 257.5013  1.00273326 23828","mean_motion":1.00273326,"eccentricity":0.0001996,"inclination_deg":0.0531,"raan_deg":347.5067,"arg_perigee_deg":91.9346,"mean_anomaly_deg":257.5013,"bstar":0,"rev_number":2382,"period_min":1436.074834099,"perigee_km":35777.746974209,"apogee_km":35794.578962757,"semimajor_km":42164.299968483,"source":"CELESTRAK","updated_at":"2026-05-25T13:38:14.090312Z"}}